Portada
METAR-TAF:

METAR-TAF

Aeroports :

Plataforma petroliera

Troll A, Noruega

latitud: 60-38-42N, longitud: 3-43-29E, altitud: 20 m

Observació

L'informe es va fer fa 42 minuts, a les 07:20 UTC
Vent 3 kt del Est/Sud-Est, variant entre Nord-Est i Sud/Sud-Est
Temperatura 7°C
Humitat 81%
Pressió 1019 hPa
Visibilitat 10 km o més

METAR: ENQA 150720Z AUTO 11003KT 050V150 9999NDV BKN036/// 07/04 Q1019 W06/S4

Hora: 09:02 (08:02 UTC)


TAF: manca

Observacions i pronòstics meteorològics de més de 4000 aeroports (METAR i TAF).

Les estacions disponibles són els punts grocs i vermells al mapa.

Posi el ratolí al punt desitjat per veure el nom de l'estació.

Feu clic per veure les observacions i els pronòstics meteorològics.

Per canviar el mapa: feu clic els botons verds amb una creu de color negre per apropar; al botó verd amb un guió per allunyar la imatge; o en les fletxes verdes per a mapes adjacents.


METAR-TAF: